Regional Weather Roundup
Issued by NWS

Home | Current Version | Previous Version | Text Only | Print | Product List | Glossary On
Versions: 1 2 3 4 5 6 7 8 9 10 11 12 13 14 15 16 17 18 19 20 21 22 23 24 25 26 27 28 29 30 31 32 33 34 35 36 37 38 39 40 41 42 43 44 45 46 47 48 49 50
000
ASUS43 KLSX 251807
RWRMO

WEATHER SUMMARY FOR MISSOURI
NATIONAL WEATHER SERVICE SPRINGFIELD MO
1200 PM CST THU DEC 25 2014

NOTE: "FAIR" INDICATES FEW OR NO CLOUDS BELOW 12,000 FEET WITH NO
       SIGNIFICANT WEATHER AND/OR OBSTRUCTIONS TO VISIBILITY.
       CURRENT SKY AND/OR WEATHER CONDITIONS ARE NOT AVAILABLE FOR
       CHILLICOTHE AND FARMINGTON.

MOZ001>031-035>038-043-044-053-054-251900-
...NORTHERN AND WESTERN MISSOURI...

CITY           SKY/WX    TMP DP  RH WIND       PRES   REMARKS
KANSAS CTY INT MOSUNNY   48  30  49 S25G35    29.74F
6HR MIN TEMP:  31; 6HR MAX TEMP:  48;

KANSAS C DTWN  SUNNY     51  29  42 S24G31    29.78F
6HR MIN TEMP:  32; 6HR MAX TEMP:  51;

LEE`S SUMMIT   SUNNY     47  29  49 S17G30    29.79F
6HR MIN TEMP:  31; 6HR MAX TEMP:  47;

ST JOSEPH      SUNNY     48  30  49 S24G33    29.73F
6HR MIN TEMP:  30; 6HR MAX TEMP:  48;

CHILLICOTHE      N/A     48  32  53 S15       29.83F
6HR MIN TEMP:  31; 6HR MAX TEMP:  48;

KIRKSVILLE     MOSUNNY   47  32  56 S14G21    29.86F
6HR MIN TEMP:  29; 6HR MAX TEMP:  47;


$$
MOZ066>068-077>081-088>096-101>105-251900-
...SOUTHWEST MISSOURI...

CITY           SKY/WX    TMP DP  RH WIND       PRES   REMARKS
SPRINGFIELD    SUNNY     48  30  49 S16G29    29.90F
6HR MIN TEMP:  30; 6HR MAX TEMP:  48;

JOPLIN         SUNNY     52  27  38 S23G37    29.87F
6HR MIN TEMP:  35; 6HR MAX TEMP:  52;


$$
MOZ032>034-039>042-045>050-055>058-069>072-251900-
...CENTRAL MISSOURI...

CITY           SKY/WX    TMP DP  RH WIND       PRES   REMARKS
COLUMBIA       SUNNY     46  32  58 S16       29.92F
6HR MIN TEMP:  30; 6HR MAX TEMP:  46;

JEFFERSON CITY SUNNY     47  31  53 S10       29.95F
6HR MIN TEMP:  30; 6HR MAX TEMP:  47;

ROLLA          SUNNY     47  31  53 S14       29.94F
6HR MIN TEMP:  30; 6HR MAX TEMP:  47;

SEDALIA        SUNNY     50  31  48 S18G30    29.88F
6HR MIN TEMP:  32; 6HR MAX TEMP:  50;

WHITEMAN AFB   SUNNY     49  31  49 S24G32    29.84F
WARRENSBURG    SUNNY     50  32  50 S15G26    29.83F
OSAGE BEACH    SUNNY     48  30  49 S16       29.94F

$$
MOZ051-052-059>065-251900-
...EAST CENTRAL MISSOURI...

CITY           SKY/WX    TMP DP  RH WIND       PRES   REMARKS
ST LOUIS INTL  MOSUNNY   49  33  54 S10       30.01F
6HR MIN TEMP:  35; 6HR MAX TEMP:  49;

SPIRIT OF STL  SUNNY     48  32  53 S9G18     29.99F
6HR MIN TEMP:  29; 6HR MAX TEMP:  48;

ST CHARLES     SUNNY     47  34  60 S14       29.99F
6HR MIN TEMP:  32; 6HR MAX TEMP:  47;


$$
MOZ072>076-082>087-097>100-106>115-251900-
...SOUTH CENTRAL AND SOUTHEAST MISSOURI...

CITY           SKY/WX    TMP DP  RH WIND       PRES   REMARKS
CAPE GIRARDEAU MOSUNNY   45  37  73 S15G25    30.13F
6HR MIN TEMP:  34; 6HR MAX TEMP:  46;

POPLAR BLUFF   SUNNY     47  34  60 S17G24    30.10F
6HR MIN TEMP:  31; 6HR MAX TEMP:  47;

WEST PLAINS    SUNNY     46  31  55 S12G22    30.02F
6HR MIN TEMP:  28; 6HR MAX TEMP:  46;


$$


USA.gov is the U.S. government's official web portal to all federal, state and local government web resources and services.